Weather in Staryye Maty

Russia / Republic of Bashkortostan     55°14′17″N   53°56′32″E
temp.,
°C
wind,
m/s
gust,
m/s
humid.,
%
clouds,
%
prec.,
mm/h
press.,
hPa
HPBL,
m
4 march, thu
thu423:00−4nw61196100 0.8 1001636
02:00−9wnw5119499 0.4 1002290
05:00−11w4109596 0.5 1003202
08:00−12sw499761 0.0 1002185
11:00−7sw6119480 0.4 1002486
14:00−4sw7119299 0.3 1000540
17:00−4sw8149499 0.6 998740
20:00−4ssw111890100 0.6 994859
5 march, fri
fri523:00−1wsw91696100 1.8 9931089
02:00−4wsw8178433 0.3 994654
05:00−7wsw7158932 0.3 997469
08:00−8wsw51092100 0.0 999337
11:00−7w4791100 0.0 1001410
14:00−6wnw4687100 0.0 1002461
17:00−7wnw4685100 0.0 1004418
20:00−13wnw339033 0.0 100622
6 march, sat
sat623:00−15w338617 0.0 101023
02:00−16sw34890 0.0 101047
05:00−17sw44910 0.0 101268
08:00−17sw469777 0.0 101293
11:00−12sw589483 0.1 1012294
14:00−8wsw4690100 0.4 1012584
17:00−8w3591100 0.4 1012529
20:00−11wsw2296100 0.1 101230
7 march, sun
sun723:00−15nw369699 0.3 1013128
02:00−20wnw2310077 0.0 101223
05:00−21wnw2210085 0.1 101221
08:00−23wnw2210097 0.0 101220
11:00−18wnw359578 0.0 1012232
14:00−14w348892 0.0 1012405
17:00−13wsw358895 0.0 1012458
20:00−17s449443 0.0 101257
8 march, mon
mon823:00−16s5119449 0.0 1011248
02:00−15s6129395 0.0 1008294
05:00−13s7149497 0.3 1005462
08:00−11s81790100 0.6 1001690
11:00−6sw91493100 1.1 10011060
14:00−6wsw7107233 0.3 10021048
17:00−6sw6117617 0.3 1004742
20:00−10s478425 0.0 1003106